Home > Weather > Höxter > Past weeks

Flag for Germany Weather for the Past 2 Weeks in Höxter, North Rhine-Westphalia, Germany

Now
37 °F

Sunny.


Feels Like: 31 °F
Forecast: 36 / 41 °F
Wind: 8 mph from East

Location: Kassel / Calden

Current Time: Feb 13, 2016 at 12:46:03 PM

Latest Report: Feb 13, 2016 at 11:50 AM


Visibility: 10 mi

Pressure: 29.30 "Hg

Humidity: 70%

Dew point: 28 °F

Location of HöxterLocation

Historic Weather in Höxter — Graph

°F

Höxter Temperature Yesterday

Maximum temperature yesterday: 41 °F (at 12:50 PM)
Minimum temperature yesterday: 30 °F (at 10:20 PM)
Average temperature yesterday: 36 °F

High & Low Weather Summary for the Past Weeks

 TemperatureHumidityPressure
High52 °F (Feb 1, 9:20 AM)100% (Feb 1, 7:20 AM)30.27 "Hg (Feb 1, 7:20 AM)
Low28 °F (Feb 13, 7:20 AM)57% (Feb 3, 3:20 PM)28.88 "Hg (Feb 9, 5:50 PM)
Average42 °F82%29.73 "Hg
* Reported Jan 29 11:20 AM — Feb 13 11:20 AM, Höxter, Weather by CustomWeather, © 2016

Note: Actual official high and low records may vary slightly from our data, if they occured in-between our weather recording intervals... More about our weather records

Advertising

Höxter Weather History for the Previous 24 Hours

 ConditionsComfort  
Time TempWeatherWind HumidityBarometerVisibility
11:20 AM
Sat, Feb 13
36 °FSunny.7 mph75%29.33 "Hg10 mi
10:50 AM36 °FSunny.7 mph75%29.33 "Hg10 mi
10:20 AM34 °FSunny.9 mph81%29.33 "Hg10 mi
9:50 AM34 °FSunny.7 mph81%29.33 "Hg10 mi
9:20 AM32 °FSunny.3 mph87%29.36 "Hg10 mi
8:50 AM30 °FSunny.3 mph93%29.36 "Hg10 mi
8:20 AM28 °FSunny.3 mph93%29.36 "Hg10 mi
7:50 AM28 °FSunny.7 mph93%29.36 "Hg10 mi
7:20 AM28 °FClear.7 mph93%29.36 "Hg10 mi
10:50 PM
Fri, Feb 12
30 °FClear.3 mph86%29.45 "Hg10 mi
10:20 PM30 °FClear.6 mph86%29.45 "Hg10 mi
9:50 PM32 °FClear.3 mph87%29.45 "Hg10 mi
9:20 PM32 °FClear.1 mph80%29.45 "Hg10 mi
8:50 PM34 °FClear.3 mph81%29.45 "Hg10 mi
8:20 PM34 °FClear.3 mph81%29.45 "Hg10 mi
7:50 PM36 °FClear.3 mph75%29.45 "Hg10 mi
7:20 PM36 °FPassing clouds.6 mph81%29.45 "HgN/A
6:50 PM37 °FPassing clouds.5 mph75%29.45 "HgN/A
6:20 PM37 °FPassing clouds.6 mph75%29.45 "HgN/A
5:50 PM39 °FPartly cloudy.7 mph70%29.47 "HgN/A
5:20 PM39 °FBroken clouds.3 mph70%29.47 "HgN/A
4:50 PM39 °FBroken clouds.5 mph70%29.47 "HgN/A
4:20 PM39 °FPartly sunny.6 mph70%29.47 "HgN/A
3:50 PM39 °FPartly sunny.7 mph70%29.47 "HgN/A
3:20 PM39 °FPartly sunny.7 mph70%29.47 "HgN/A
2:50 PM39 °FPartly sunny.5 mph70%29.50 "HgN/A
2:20 PM39 °FBroken clouds.7 mph70%29.50 "HgN/A
1:50 PM39 °FScattered clouds.8 mph75%29.53 "HgN/A
1:20 PM39 °FPartly sunny.7 mph70%29.53 "HgN/A
12:50 PM41 °FPartly sunny.8 mph66%29.53 "HgN/A
12:20 PM39 °FScattered clouds.9 mph75%29.56 "HgN/A
Weather by CustomWeather, © 2016

See weather overviewHow to use our weather pages